1491372001.12,58964,13.56,73616.3,-0.77,-16.09,-16.59,0,*63
1491372002.35,58965,13.56,73616.3,-0.77,-15.95,-16.31,0,*6A
1491372003.57,58966,13.56,73616.8,-0.77,-15.95,-16.27,0,*6E
1491372004.8,58967,13.56,73618.3,-0.77,-15.81,-15.99,0,*6C
1491372006.05,58968,13.56,73620.3,-0.75,-15.75,-15.89,0,*6B
1491372007.31,58969,13.56,73618.8,-0.75,-15.89,-16.03,0,*68
1491372008.59,58970,13.56,73624.0,-0.75,-15.81,-15.81,0,*61
1491372009.81,58971,13.56,73618.0,-0.77,-15.81,-15.71,0,*6D
1491372011.07,58972,13.56,73616.0,-0.75,-15.89,-15.75,0,*60
1491372012.32,58973,13.56,73622.8,-0.75,-16.27,-16.03,0,*64
1491372013.58,58974,13.56,73622.0,-0.75,-16.37,-16.09,0,*68
1491372014.87,58975,13.56,73620.8,-0.75,-16.17,-15.81,0,*68
1491372016.13,58976,13.56,73616.3,-0.75,-16.17,-15.53,0,*64
1491372017.4,58977,13.56,73622.5,-0.75,-16.51,-15.89,0,*60
1491372018.66,58978,13.56,73620.5,-0.75,-16.65,-16.03,0,*69
1491372019.88,58979,13.56,73620.0,-0.71,-16.37,-15.67,0,*6A
1491372021.11,58980,13.56,73618.5,-0.73,-16.83,-15.89,0,*61
1491372022.33,58981,13.56,73620.0,-0.73,-16.69,-15.63,0,*60
1491372023.56,58982,13.56,73620.8,-0.73,-16.51,-15.53,0,*6B
1491372024.79,58983,13.56,73624.3,-0.73,-16.69,-15.49,0,*6A
1491372025.99,58984,13.56,73616.5,-0.73,-16.75,-15.63,0,*68
1491372027.25,58985,13.56,73620.3,-0.73,-17.41,-16.17,0,*6F
1491372028.5,58986,13.56,73620.3,-0.71,-16.89,-15.57,0,*6C
1491372029.73,58987,13.56,73620.5,-0.73,-17.07,-15.67,0,*6B
1491372030.95,58988,13.56,73618.3,-0.73,-16.89,-15.43,0,*65
1491372032.18,58989,13.56,73618.5,-0.73,-16.97,-15.39,0,*66
1491372033.41,58990,13.56,73618.3,-0.73,-17.11,-15.49,0,*66
1491372034.69,58991,13.56,73618.3,-0.71,-17.17,-15.57,0,*6C
1491372035.97,58992,13.56,73616.3,-0.71,-17.07,-15.35,0,*6A
1491372037.23,58993,13.56,73616.5,-0.71,-17.25,-15.49,0,*60
1491372038.48,58994,13.56,73616.3,-0.71,-17.55,-15.75,0,*6F
1491372039.76,58995,13.56,73618.3,-0.71,-17.25,-15.43,0,*6C
1491372041.01,58996,13.56,73622.3,-0.71,-17.49,-15.57,0,*60
1491372042.24,58997,13.56,73620.3,-0.69,-17.63,-15.71,0,*64
1491372043.48,58998,13.56,73616.0,-0.69,-17.63,-15.85,0,*60
1491372044.74,58999,13.56,73620.8,-0.67,-17.73,-15.81,0,*6A
1491372045.97,59000,13.56,73616.5,-0.67,-17.73,-15.71,0,*6D
1491372047.23,59001,13.56,73618.0,-0.67,-18.25,-16.09,0,*6C
1491372048.48,59002,13.56,73618.5,-0.67,-17.93,-15.95,0,*6B
1491372049.71,59003,13.56,73620.0,-0.67,-18.11,-15.99,0,*63
1491372050.93,59004,13.56,73620.3,-0.69,-18.11,-16.13,0,*6B
1491372052.19,59005,13.63,73622.5,-0.67,-18.41,-16.13,0,*61
1491372053.41,59006,13.56,73616.0,-0.67,-18.21,-15.99,0,*65
1491372054.67,59007,13.56,73618.5,-0.67,-18.41,-16.13,0,*63
1491372055.9,59008,13.56,73618.3,-0.67,-18.11,-15.99,0,*68
1491372057.13,59009,13.56,73616.3,-0.67,-18.25,-15.95,0,*62
1491372058.38,59010,13.56,73618.5,-0.67,-18.49,-16.17,0,*69
1491372059.64,59011,13.56,73620.8,-0.63,-18.99,-16.69,0,*68
1491372060.87,59012,13.56,73618.0,-0.63,-18.79,-16.41,0,*6F
1491372062.15,59013,13.56,73618.3,-0.63,-18.59,-16.09,0,*60
1491372063.39,59014,13.56,73620.0,-0.63,-18.89,-16.37,0,*67
1491372064.63,59015,13.56,73618.8,-0.61,-19.23,-16.79,0,*6F
1491372065.86,59016,13.56,73620.3,-0.63,-19.37,-16.83,0,*6E
1491372067.09,59017,13.56,73620.0,-0.63,-19.07,-16.55,0,*67
1491372068.35,59018,13.56,73616.5,-0.61,-19.65,-17.07,0,*68
1491372069.56,59019,13.56,73618.3,-0.61,-19.37,-16.79,0,*66
1491372070.79,59020,13.56,73618.0,-0.63,-19.37,-16.79,0,*6E
1491372072.08,59021,13.63,73618.8,-0.63,-19.27,-16.69,0,*6F
1491372073.34,59022,13.56,73616.0,-0.63,-19.13,-16.51,0,*60
1491372074.63,59023,13.56,73616.8,-0.67,-19.27,-16.69,0,*69
1491372075.86,59024,13.56,73614.0,-0.63,-19.51,-16.79,0,*6A
1491372077.09,59025,13.56,73616.3,-0.63,-19.71,-16.97,0,*69
1491372078.35,59026,13.56,73618.3,-0.63,-19.27,-16.37,0,*63
1491372079.56,59027,13.56,73614.5,-0.61,-19.51,-16.79,0,*6B
1491372080.84,59028,13.56,73618.3,-0.63,-19.57,-16.69,0,*61
1491372082.1,59029,13.56,73612.8,-0.61,-19.27,-16.51,0,*6E
1491372083.33,59030,13.63,73618.3,-0.61,-19.51,-16.65,0,*60
1491372084.56,59031,13.56,73616.5,-0.61,-19.57,-16.55,0,*64
1491372085.81,59032,13.56,73616.5,-0.61,-19.65,-16.65,0,*65
1491372087.06,59033,13.56,73616.8,-0.61,-19.57,-16.51,0,*62
1491372088.29,59034,13.63,73614.3,-0.61,-19.41,-16.41,0,*63
1491372089.53,59035,13.56,73618.5,-0.61,-19.81,-16.69,0,*64
1491372090.79,59036,13.56,73622.0,-0.59,-19.91,-16.65,0,*61
1491372091.98,59037,13.63,73620.5,-0.57,-20.09,-16.89,0,*67
1491372093.22,59038,13.56,73612.0,-0.59,-20.15,-16.93,0,*60
1491372094.46,59039,13.56,73616.5,-0.59,-19.99,-16.75,0,*67
1491372095.71,59040,13.56,73612.8,-0.59,-19.65,-16.45,0,*69
1491372096.91,59041,13.56,73614.0,-0.57,-19.75,-16.45,0,*67
1491372098.17,59042,13.56,73616.0,-0.59,-19.81,-16.51,0,*64
1491372099.39,59043,13.56,73618.3,-0.57,-20.09,-16.65,0,*66
1491372100.62,59044,13.56,73616.0,-0.59,-20.09,-16.59,0,*60
1491372101.9,59045,13.63,73622.0,-0.59,-20.53,-17.03,0,*60
1491372103.09,59046,13.56,73620.3,-0.57,-20.09,-16.45,0,*61
1491372104.32,59047,13.63,73626.0,-0.59,-20.39,-16.89,0,*6D
1491372105.55,59048,13.56,73622.5,-0.59,-20.43,-16.93,0,*64
1491372106.74,59049,13.56,73618.5,-0.57,-20.25,-16.45,0,*60
1491372107.97,59050,13.63,73618.8,-0.57,-19.99,-16.31,0,*66
1491372109.18,59051,13.63,73620.8,-0.57,-20.43,-16.79,0,*66
1491372110.38,59052,13.56,73620.3,-0.57,-20.25,-16.59,0,*67
1491372111.58,59053,13.56,73616.3,-0.57,-20.39,-16.59,0,*6B
1491372112.79,59054,13.56,73614.5,-0.57,-20.43,-16.79,0,*63
1491372113.99,59055,13.56,73614.3,-0.57,-20.69,-16.89,0,*65
1491372115.18,59056,13.56,73618.3,-0.57,-20.69,-16.89,0,*66
1491372116.41,59057,13.56,73622.5,-0.55,-20.69,-16.75,0,*66
1491372117.66,59058,13.56,73620.3,-0.55,-20.83,-16.97,0,*61
1491372118.91,59059,13.56,73620.5,-0.55,-20.99,-17.31,0,*66
1491372120.13,59060,13.56,73620.3,-0.53,-20.89,-17.17,0,*6F
1491372121.39,59061,13.56,73618.5,-0.53,-20.99,-17.07,0,*6E
1491372122.63,59062,13.56,73614.5,-0.53,-20.89,-17.07,0,*6C
1491372123.85,59063,13.63,73616.0,-0.53,-20.83,-16.97,0,*6F
1491372125.11,59064,13.56,73616.0,-0.53,-20.99,-17.07,0,*6B
1491372126.33,59065,13.63,73622.5,-0.53,-20.99,-17.31,0,*6F
1491372127.56,59066,13.63,73618.5,-0.55,-21.13,-17.35,0,*6D
1491372128.81,59067,13.56,73618.3,-0.55,-21.17,-17.59,0,*62
1491372130.07,59068,13.56,73612.5,-0.53,-21.33,-17.59,0,*6D
1491372131.34,59069,13.56,73618.5,-0.55,-21.27,-17.59,0,*6F
1491372132.54,59070,13.63,73616.8,-0.53,-21.43,-17.87,0,*60
1491372133.79,59071,13.56,73614.8,-0.53,-21.33,-17.63,0,*6C
1491372134.99,59072,13.56,73616.8,-0.53,-21.43,-17.73,0,*69
1491372136.24,59073,13.56,73614.3,-0.51,-21.67,-18.17,0,*61
1491372137.5,59074,13.63,73618.8,-0.51,-21.77,-18.31,0,*63
1491372138.73,59075,13.63,73618.3,-0.51,-21.93,-18.65,0,*69
1491372139.98,59076,13.56,73616.3,-0.53,-21.83,-18.55,0,*6A
1491372141.25,59077,13.56,73614.8,-0.55,-21.83,-18.55,0,*6D
1491372142.47,59078,13.56,73614.5,-0.53,-21.83,-18.79,0,*6A
1491372143.66,59079,13.56,73618.5,-0.53,-21.93,-18.79,0,*6A
1491372144.85,59080,13.56,73616.0,-0.53,-22.11,-18.99,0,*6B
1491372146.08,59081,13.56,73616.5,-0.51,-21.93,-18.83,0,*6A
1491372147.33,59082,13.56,73616.3,-0.51,-22.17,-19.07,0,*6B
1491372148.52,59083,13.56,73614.3,-0.53,-22.07,-19.17,0,*68
1491372149.74,59084,13.56,73618.3,-0.53,-22.07,-19.27,0,*6C
1491372150.96,59085,13.63,73616.3,-0.53,-21.77,-18.89,0,*6C
1491372152.19,59086,13.56,73614.8,-0.53,-21.83,-19.17,0,*62
1491372153.43,59087,13.63,73614.8,-0.53,-21.97,-19.31,0,*62
1491372154.66,59088,13.63,73618.3,-0.53,-21.97,-19.47,0,*6C
1491372155.85,59089,13.56,73614.8,-0.53,-22.11,-19.47,0,*60
1491372157.1,59090,13.56,73612.3,-0.51,-22.07,-19.65,0,*6D
1491372158.36,59091,13.56,73612.5,-0.51,-22.03,-19.57,0,*69
1491372159.63,59092,13.63,73616.3,-0.51,-22.21,-19.81,0,*61
1491372160.86,59093,13.56,73618.5,-0.51,-21.93,-19.71,0,*65
1491372162.11,59094,13.56,73614.0,-0.51,-22.03,-19.81,0,*67
1491372163.37,59095,13.63,73616.3,-0.51,-22.21,-20.05,0,*60
1491372164.62,59096,13.63,73618.3,-0.51,-22.17,-20.05,0,*66
1491372165.86,59097,13.56,73612.0,-0.51,-22.53,-20.43,0,*65
1491372167.09,59098,13.63,73612.8,-0.53,-22.41,-20.53,0,*6A
1491372168.29,59099,13.56,73616.8,-0.53,-22.07,-20.09,0,*66
1491372169.54,59100,13.56,73616.3,-0.51,-21.87,-20.05,0,*62
1491372170.81,59101,13.56,73616.5,-0.51,-22.17,-20.43,0,*6B
1491372172.06,59102,13.56,73614.0,-0.51,-22.03,-20.35,0,*6C
1491372173.34,59103,13.56,73616.8,-0.51,-22.21,-20.49,0,*66
1491372174.62,59104,13.63,73622.0,-0.51,-22.47,-20.79,0,*62
1491372175.85,59105,13.56,73618.0,-0.51,-22.67,-21.09,0,*67
1491372177.07,59106,13.63,73626.0,-0.53,-22.83,-21.33,0,*65
1491372178.3,59107,13.63,73616.0,-0.53,-22.27,-20.83,0,*60
1491372179.57,59108,13.63,73616.8,-0.51,-22.21,-20.79,0,*6E
1491372180.83,59109,13.56,73616.8,-0.51,-22.37,-20.83,0,*6D
1491372182.05,59110,13.56,73612.8,-0.53,-22.73,-21.43,0,*6A
1491372183.27,59111,13.63,73622.0,-0.53,-22.73,-21.43,0,*6B
1491372184.5,59112,13.56,73616.0,-0.53,-22.53,-21.33,0,*6D
1491372185.7,59113,13.56,73622.0,-0.53,-22.53,-21.43,0,*6B
1491372186.89,59114,13.63,73618.0,-0.53,-22.83,-21.73,0,*62
1491372188.09,59115,13.56,73618.8,-0.53,-22.83,-21.63,0,*62
1491372189.31,59116,13.63,73616.3,-0.53,-22.67,-21.57,0,*6C
1491372190.54,59117,13.63,73618.5,-0.55,-22.93,-22.07,0,*66
1491372191.76,59118,13.63,73616.3,-0.55,-22.53,-21.43,0,*66
1491372192.98,59119,13.63,73616.0,-0.51,-22.67,-21.73,0,*67
1491372194.19,59120,13.63,73620.0,-0.53,-22.93,-22.07,0,*64
1491372195.41,59121,13.63,73620.5,-0.53,-22.41,-21.57,0,*6C
1491372196.63,59122,13.63,73618.5,-0.55,-22.57,-21.63,0,*69
1491372197.88,59123,13.63,73622.0,-0.55,-22.67,-21.83,0,*65
1491372199.1,59124,13.63,73620.0,-0.53,-22.47,-21.73,0,*69
1491372200.3,59125,13.56,73616.3,-0.53,-22.67,-22.07,0,*6A
1491372201.52,59126,13.63,73620.8,-0.55,-22.67,-22.07,0,*6F
1491372202.75,59127,13.56,73618.3,-0.53,-22.53,-21.83,0,*60
1491372203.95,59128,13.63,73620.3,-0.53,-22.37,-21.73,0,*62
1491372205.15,59129,13.63,73622.5,-0.53,-22.83,-22.27,0,*6E
1491372206.37,59130,13.63,73620.5,-0.55,-22.41,-21.77,0,*68
1491372207.59,59131,13.63,73622.3,-0.53,-22.07,-21.57,0,*6F
1491372208.81,59132,13.63,73622.8,-0.53,-22.37,-21.83,0,*66
1491372210.04,59133,13.63,73620.3,-0.53,-22.37,-21.97,0,*62
1491372211.23,59134,13.63,73622.8,-0.53,-22.87,-22.41,0,*66
1491372212.48,59135,13.56,73622.5,-0.55,-22.57,-22.21,0,*6A
1491372213.7,59136,13.63,73622.5,-0.53,-22.37,-21.97,0,*67
1491372214.91,59137,13.63,73622.0,-0.53,-22.57,-22.27,0,*68
1491372216.11,59138,13.63,73622.0,-0.53,-22.83,-22.53,0,*6D
1491372217.33,59139,13.56,73620.0,-0.55,-22.87,-22.53,0,*6E
1491372218.58,59140,13.56,73618.0,-0.55,-22.37,-21.97,0,*60
1491372219.78,59141,13.56,73618.3,-0.53,-22.53,-22.27,0,*6D
1491372221.01,59142,13.63,73620.8,-0.53,-22.67,-22.21,0,*6F
1491372222.23,59143,13.63,73626.0,-0.53,-22.57,-22.21,0,*6D
1491372223.44,59144,13.63,73618.3,-0.53,-22.53,-22.27,0,*68
1491372224.64,59145,13.63,73620.5,-0.53,-22.57,-22.27,0,*6D
1491372225.87,59146,13.56,73616.3,-0.53,-22.73,-22.57,0,*6F
1491372227.09,59147,13.63,73620.5,-0.55,-22.57,-22.41,0,*69
1491372228.29,59148,13.63,73624.3,-0.53,-22.57,-22.41,0,*60
1491372229.51,59149,13.63,73618.3,-0.53,-22.37,-22.21,0,*61
1491372230.73,59150,13.63,73620.0,-0.53,-22.41,-22.21,0,*68
1491372231.95,59151,13.63,73616.5,-0.53,-22.73,-22.41,0,*6E
1491372233.23,59152,13.63,73620.3,-0.51,-22.47,-22.21,0,*6E
1491372234.45,59153,13.63,73622.8,-0.51,-22.63,-22.37,0,*6E
1491372235.7,59154,13.63,73616.3,-0.51,-22.37,-22.21,0,*6F
1491372236.98,59155,13.63,73616.3,-0.51,-22.31,-22.21,0,*68
1491372238.24,59156,13.63,73620.0,-0.51,-22.67,-22.47,0,*68
1491372239.49,59157,13.63,73622.0,-0.51,-22.37,-22.21,0,*6C
1491372240.74,59158,13.63,73622.0,-0.51,-22.47,-22.37,0,*63
1491372242.03,59159,13.63,73618.3,-0.51,-22.47,-22.31,0,*64
1491372243.31,59160,13.63,73616.0,-0.51,-22.47,-22.31,0,*6E
1491372244.6,59161,13.63,73618.5,-0.51,-22.31,-22.17,0,*6A
1491372245.8,59162,13.63,73616.0,-0.49,-22.53,-22.37,0,*66
1491372247.01,59163,13.63,73616.3,-0.49,-22.53,-22.37,0,*67
1491372248.24,59164,13.63,73614.3,-0.49,-22.47,-22.37,0,*65
1491372249.46,59165,13.63,73620.0,-0.47,-22.41,-22.27,0,*6D
1491372250.69,59166,13.63,73616.3,-0.47,-22.27,-22.11,0,*6B
1491372251.97,59167,13.63,73616.8,-0.47,-22.47,-22.31,0,*6E
1491372253.25,59168,13.63,73618.8,-0.47,-22.47,-22.31,0,*61
1491372254.5,59169,13.63,73616.0,-0.47,-22.63,-22.47,0,*67
1491372255.75,59170,13.63,73616.3,-0.47,-22.73,-22.57,0,*6F
1491372257.0,59171,13.63,73614.5,-0.47,-22.41,-22.31,0,*6F
1491372258.26,59172,13.56,73618.8,-0.47,-22.47,-22.27,0,*6D
1491372259.54,59173,13.63,73618.3,-0.47,-22.47,-22.31,0,*6B
1491372260.79,59174,13.63,73616.3,-0.47,-22.27,-22.17,0,*6E
1491372262.04,59175,13.63,73616.3,-0.47,-22.63,-22.47,0,*6A
1491372263.3,59176,13.63,73618.0,-0.47,-22.47,-22.27,0,*69
1491372264.5,59177,13.63,73616.5,-0.45,-22.57,-22.41,0,*6B
1491372265.75,59178,13.63,73616.3,-0.47,-22.41,-22.31,0,*66
1491372267.0,59179,13.63,73620.3,-0.47,-22.73,-22.57,0,*66
1491372268.25,59180,13.63,73618.0,-0.47,-22.73,-22.63,0,*67
1491372269.47,59181,13.63,73618.5,-0.45,-22.63,-22.47,0,*63
1491372270.71,59182,13.63,73618.3,-0.45,-22.77,-22.57,0,*64
1491372271.96,59183,13.63,73616.5,-0.47,-22.77,-22.57,0,*67
1491372273.19,59184,13.63,73618.8,-0.45,-22.47,-22.41,0,*66
1491372274.41,59185,13.63,73618.8,-0.45,-22.63,-22.47,0,*67
1491372275.67,59186,13.63,73614.3,-0.45,-22.47,-22.31,0,*63
1491372276.91,59187,13.63,73620.3,-0.45,-22.57,-22.31,0,*63
1491372278.13,59188,13.63,73614.5,-0.43,-22.57,-22.41,0,*6D
1491372279.38,59189,13.63,73618.8,-0.43,-22.53,-22.21,0,*6E
1491372280.64,59190,13.63,73622.3,-0.43,-22.77,-22.67,0,*62
1491372281.86,59191,13.63,73612.3,-0.43,-22.67,-22.53,0,*65
1491372283.12,59192,13.63,73616.5,-0.43,-22.77,-22.67,0,*60
1491372284.39,59193,13.63,73620.3,-0.43,-22.77,-22.73,0,*64
1491372285.65,59194,13.63,73616.5,-0.43,-22.77,-22.67,0,*66
1491372286.85,59195,13.63,73618.3,-0.45,-23.09,-22.93,0,*62
1491372288.09,59196,13.63,73618.5,-0.45,-22.93,-22.77,0,*69
1491372289.31,59197,13.63,73618.0,-0.45,-22.83,-22.73,0,*6D
1491372290.56,59198,13.63,73620.0,-0.45,-23.29,-23.23,0,*67
1491372291.81,59199,13.63,73618.0,-0.47,-23.29,-23.13,0,*67
1491372293.02,59200,13.63,73622.3,-0.45,-23.09,-22.97,0,*69
1491372294.23,59201,13.63,73620.0,-0.45,-22.93,-22.83,0,*6F
1491372295.47,59202,13.63,73620.3,-0.47,-22.83,-22.73,0,*60
1491372296.75,59203,13.63,73620.8,-0.43,-23.19,-23.03,0,*61
1491372297.98,59204,13.63,73618.0,-0.47,-23.13,-23.09,0,*62
1491372299.19,59205,13.63,73618.3,-0.45,-22.97,-22.93,0,*6E
1491372300.44,59206,13.63,73622.0,-0.47,-23.23,-23.09,0,*63
1491372301.69,59207,13.63,73622.3,-0.47,-22.83,-22.77,0,*61
1491372302.89,59208,13.63,73620.8,-0.45,-22.83,-22.63,0,*69
1491372304.17,59209,13.63,73620.5,-0.47,-22.77,-22.73,0,*60
1491372305.38,59210,13.63,73620.0,-0.45,-23.09,-22.97,0,*68
1491372306.58,59211,13.63,73620.3,-0.45,-22.97,-22.83,0,*6A
1491372307.82,59212,13.63,73620.5,-0.47,-23.09,-22.93,0,*6C
1491372309.05,59213,13.63,73622.5,-0.47,-23.59,-23.43,0,*64
1491372310.27,59214,13.63,73618.3,-0.47,-23.39,-23.09,0,*6B
1491372311.48,59215,13.63,73618.3,-0.45,-23.09,-22.97,0,*6D
1491372312.69,59216,13.63,73620.0,-0.49,-23.13,-22.97,0,*69
1491372313.94,59217,13.63,73620.5,-0.47,-22.97,-22.77,0,*65
1491372315.17,59218,13.63,73620.5,-0.47,-23.13,-22.93,0,*6D
1491372316.42,59219,13.63,73614.8,-0.47,-23.43,-23.29,0,*69
1491372317.65,59220,13.63,73618.8,-0.45,-23.23,-23.13,0,*6E
1491372318.88,59221,13.63,73622.8,-0.49,-23.29,-23.13,0,*69
1491372320.11,59222,13.63,73622.0,-0.49,-23.03,-22.97,0,*6F
1491372321.34,59223,13.63,73620.8,-0.47,-22.83,-22.63,0,*62
1491372322.58,59224,13.63,73622.8,-0.47,-22.83,-22.73,0,*64
1491372323.81,59225,13.63,73618.8,-0.47,-22.83,-22.63,0,*64
1491372325.01,59226,13.63,73618.5,-0.49,-22.87,-22.67,0,*69
1491372326.23,59227,13.63,73622.5,-0.47,-22.83,-22.63,0,*66
1491372327.48,59228,13.63,73616.0,-0.47,-22.83,-22.77,0,*6C
1491372328.72,59229,13.63,73620.0,-0.45,-22.93,-22.77,0,*6E
1491372329.97,59230,13.63,73618.0,-0.47,-22.93,-22.77,0,*64
1491372331.2,59231,13.63,73616.8,-0.47,-22.83,-22.63,0,*61
1491372332.47,59232,13.63,73616.8,-0.47,-22.77,-22.73,0,*68
1491372333.7,59233,13.63,73622.3,-0.45,-22.83,-22.73,0,*60
1491372334.94,59234,13.63,73616.3,-0.47,-22.83,-22.73,0,*65
1491372336.17,59235,13.63,73618.5,-0.45,-22.93,-22.73,0,*67
1491372337.38,59236,13.63,73616.0,-0.45,-23.09,-22.93,0,*68
1491372338.61,59237,13.63,73614.5,-0.47,-23.13,-22.97,0,*64
1491372339.81,59238,13.63,73618.0,-0.45,-23.13,-23.09,0,*6F
1491372341.02,59239,13.63,73616.3,-0.45,-22.83,-22.63,0,*6B
1491372342.24,59240,13.63,73616.8,-0.45,-22.83,-22.73,0,*64
1491372343.45,59241,13.63,73618.8,-0.45,-23.09,-22.93,0,*68
1491372344.68,59242,13.63,73620.0,-0.45,-22.93,-22.77,0,*63
1491372345.91,59243,13.63,73618.5,-0.45,-22.97,-22.77,0,*66
1491372347.13,59244,13.63,73618.5,-0.45,-22.73,-22.41,0,*6E
1491372348.35,59245,13.63,73614.8,-0.45,-22.73,-22.41,0,*6F
1491372349.59,59246,13.63,73620.5,-0.43,-22.73,-22.53,0,*69
1491372350.84,59247,13.63,73618.3,-0.43,-22.73,-22.53,0,*68
1491372352.09,59248,13.63,73620.5,-0.43,-22.73,-22.57,0,*63
1491372353.32,59249,13.63,73622.0,-0.43,-22.67,-22.53,0,*63
1491372354.54,59250,13.63,73618.0,-0.43,-22.67,-22.37,0,*69
1491372355.75,59251,13.63,73620.8,-0.43,-22.67,-22.41,0,*69
1491372357.01,59252,13.63,73614.0,-0.39,-22.73,-22.63,0,*62
1491372358.24,59253,13.63,73616.0,-0.39,-22.53,-22.37,0,*60
1491372359.46,59254,13.63,73620.5,-0.39,-22.63,-22.37,0,*64
1491372360.71,59255,13.63,73620.0,-0.39,-22.73,-22.63,0,*65
1491372361.93,59256,13.63,73622.3,-0.39,-22.67,-22.37,0,*62
1491372363.15,59257,13.63,73620.3,-0.39,-22.63,-22.37,0,*67
1491372364.38,59258,13.63,73618.3,-0.39,-22.67,-22.37,0,*6C
1491372365.66,59259,13.63,73618.3,-0.39,-22.47,-22.17,0,*6D
1491372366.89,59260,13.63,73618.5,-0.37,-22.67,-22.47,0,*6E
1491372368.1,59261,13.63,73616.5,-0.37,-23.13,-22.97,0,*60
1491372369.33,59262,13.63,73618.0,-0.37,-23.03,-22.83,0,*67
1491372370.56,59263,13.63,73618.0,-0.37,-23.03,-22.97,0,*63
1491372371.78,59264,13.63,73618.3,-0.37,-22.73,-22.63,0,*69
1491372373.04,59265,13.63,73618.5,-0.35,-22.67,-22.47,0,*69
1491372374.27,59266,13.63,73616.8,-0.37,-22.97,-22.73,0,*60
1491372375.5,59267,13.63,73618.8,-0.37,-23.19,-22.97,0,*6C
1491372376.73,59268,13.63,73616.5,-0.35,-22.97,-22.83,0,*63
1491372377.93,59269,13.63,73620.0,-0.37,-23.13,-22.87,0,*69
1491372379.13,59270,13.63,73616.5,-0.37,-22.83,-22.63,0,*63
1491372380.33,59271,13.63,73620.0,-0.37,-22.83,-22.63,0,*62
1491372381.54,59272,13.63,73616.3,-0.37,-22.83,-22.63,0,*61
1491372382.79,59273,13.63,73620.3,-0.35,-22.67,-22.47,0,*6E
1491372384.02,59274,13.63,73616.3,-0.35,-22.67,-22.41,0,*6F
1491372385.27,59275,13.63,73620.5,-0.35,-22.67,-22.47,0,*68
1491372386.5,59276,13.63,73618.0,-0.37,-22.67,-22.47,0,*69
1491372387.76,59277,13.63,73622.3,-0.35,-22.77,-22.63,0,*6D
1491372389.02,59278,13.63,73618.3,-0.35,-22.93,-22.77,0,*6D
1491372390.22,59279,13.63,73620.3,-0.33,-22.63,-22.53,0,*63
1491372391.46,59280,13.63,73618.5,-0.33,-22.41,-22.17,0,*65
1491372392.69,59281,13.63,73620.3,-0.33,-22.77,-22.63,0,*62
1491372393.93,59282,13.63,73622.8,-0.33,-22.67,-22.47,0,*66
1491372395.16,59283,13.63,73620.5,-0.35,-22.67,-22.63,0,*67
1491372396.36,59284,13.63,73620.0,-0.33,-22.83,-22.57,0,*6B
1491372397.6,59285,13.63,73618.0,-0.33,-22.93,-22.77,0,*69
1491372398.81,59286,13.63,73618.0,-0.33,-23.09,-22.93,0,*62
1491372400.04,59287,13.63,73618.5,-0.33,-22.77,-22.57,0,*63
1491372401.28,59288,13.63,73618.0,-0.33,-22.77,-22.57,0,*6C
1491372402.49,59289,13.63,73622.3,-0.31,-22.63,-22.41,0,*6D
1491372403.7,59290,13.63,73616.3,-0.33,-22.93,-22.67,0,*6C
1491372404.91,59291,13.63,73616.5,-0.33,-22.93,-22.83,0,*67
1491372406.14,59292,13.63,73618.3,-0.33,-22.83,-22.77,0,*6E
1491372407.37,59293,13.63,73616.5,-0.33,-22.93,-22.77,0,*6E
1491372408.65,59294,13.63,73612.8,-0.31,-22.77,-22.73,0,*65
1491372409.85,59295,13.63,73618.3,-0.33,-22.63,-22.41,0,*62
1491372411.09,59296,13.63,73618.0,-0.31,-22.73,-22.41,0,*62
1491372412.32,59297,13.63,73624.3,-0.31,-23.09,-22.87,0,*65
1491372413.55,59298,13.63,73620.0,-0.31,-22.93,-22.87,0,*68
1491372414.76,59299,13.63,73620.3,-0.33,-22.67,-22.57,0,*6D
1491372415.99,59300,13.63,73618.8,-0.33,-22.67,-22.47,0,*6D
1491372417.25,59301,13.63,73618.3,-0.31,-23.19,-22.93,0,*6F
1491372418.48,59302,13.63,73618.3,-0.33,-22.67,-22.47,0,*6F
1491372419.71,59303,13.63,73616.8,-0.31,-22.57,-22.41,0,*69
1491372420.96,59304,13.63,73618.0,-0.31,-22.73,-22.53,0,*6B
1491372422.18,59305,13.63,73616.0,-0.31,-22.63,-22.37,0,*69
1491372423.44,59306,13.63,73616.8,-0.31,-23.19,-22.93,0,*68
1491372424.66,59307,13.63,73622.0,-0.31,-22.63,-22.27,0,*6A
1491372425.89,59308,13.63,73616.5,-0.31,-22.57,-22.37,0,*63
1491372427.11,59309,13.63,73620.3,-0.31,-22.63,-22.41,0,*64
1491372428.34,59310,13.63,73622.3,-0.29,-22.67,-22.47,0,*67
1491372429.6,59311,13.63,73616.5,-0.29,-22.73,-22.47,0,*63
1491372430.86,59312,13.63,73616.3,-0.29,-22.73,-22.47,0,*60
1491372432.08,59313,13.63,73618.5,-0.29,-22.73,-22.37,0,*66
1491372433.34,59314,13.63,73616.0,-0.29,-22.73,-22.47,0,*66
1491372434.54,59315,13.63,73616.5,-0.29,-22.87,-22.67,0,*6E
1491372435.76,59316,13.63,73618.0,-0.27,-22.87,-22.67,0,*63
1491372436.96,59317,13.63,73616.3,-0.29,-22.87,-22.67,0,*6C
1491372438.21,59318,13.63,73614.8,-0.27,-23.29,-22.87,0,*66
1491372439.49,59319,13.63,73620.8,-0.27,-22.73,-22.47,0,*65
1491372440.69,59320,13.63,73616.3,-0.29,-23.13,-22.67,0,*64
1491372441.89,59321,13.63,73618.8,-0.29,-22.83,-22.53,0,*6A
1491372443.13,59322,13.63,73616.3,-0.29,-22.83,-22.47,0,*6C
1491372444.39,59323,13.63,73618.0,-0.27,-22.57,-22.17,0,*6F
1491372445.65,59324,13.63,73618.3,-0.27,-22.57,-22.17,0,*68
1491372446.88,59325,13.63,73618.5,-0.29,-22.67,-22.31,0,*60
1491372448.11,59326,13.63,73620.0,-0.25,-22.27,-21.87,0,*65
1491372449.34,59327,13.63,73618.3,-0.27,-22.37,-21.93,0,*62
1491372450.58,59328,13.63,73622.0,-0.23,-22.41,-21.97,0,*6C
1491372451.84,59329,13.63,73620.8,-0.23,-22.53,-22.17,0,*65
1491372453.07,59330,13.63,73616.5,-0.23,-22.53,-22.11,0,*6B
1491372454.3,59331,13.63,73620.8,-0.23,-22.97,-22.63,0,*67
1491372455.52,59332,13.63,73618.0,-0.23,-23.13,-22.83,0,*67
1491372456.72,59333,13.63,73616.0,-0.25,-23.39,-22.97,0,*6D
1491372457.93,59334,13.63,73618.0,-0.25,-22.97,-22.63,0,*64
1491372459.18,59335,13.63,73620.5,-0.23,-22.77,-22.41,0,*6D
1491372460.4,59336,13.63,73616.3,-0.23,-22.67,-22.41,0,*6F
1491372461.63,59337,13.63,73618.8,-0.23,-23.09,-22.63,0,*67
1491372462.84,59338,13.63,73620.8,-0.23,-22.83,-22.41,0,*6B
1491372464.1,59339,13.63,73620.0,-0.23,-22.77,-22.63,0,*61
1491372465.32,59340,13.63,73622.3,-0.23,-23.39,-22.97,0,*6F
1491372466.55,59341,13.63,73620.3,-0.23,-22.97,-22.53,0,*63
1491372467.8,59342,13.63,73622.3,-0.23,-22.77,-22.41,0,*6D
1491372469.04,59343,13.63,73622.0,-0.23,-22.63,-22.31,0,*6E
1491372470.27,59344,13.63,73614.0,-0.21,-23.09,-22.77,0,*64
1491372471.54,59345,13.63,73616.8,-0.17,-23.09,-22.77,0,*60
1491372472.8,59346,13.63,73618.3,-0.17,-23.03,-22.63,0,*6C
1491372473.99,59347,13.63,73620.8,-0.21,-22.63,-22.37,0,*6E
1491372475.22,59348,13.63,73618.5,-0.17,-22.63,-22.27,0,*65
1491372476.45,59349,13.63,73626.8,-0.17,-22.87,-22.57,0,*69
1491372477.68,59350,13.63,73616.5,-0.17,-22.57,-22.11,0,*6E
1491372478.94,59351,13.63,73618.8,-0.17,-22.57,-22.21,0,*6C
1491372480.2,59352,13.63,73616.0,-0.17,-22.41,-21.97,0,*66
1491372481.45,59353,13.63,73616.0,-0.17,-22.63,-22.21,0,*69
1491372482.68,59354,13.63,73618.8,-0.13,-22.41,-22.07,0,*6E
1491372483.88,59355,13.63,73620.3,-0.15,-22.87,-22.57,0,*66
1491372485.1,59356,13.63,73616.5,-0.15,-23.29,-22.87,0,*6D
1491372486.3,59357,13.63,73620.8,-0.15,-22.87,-22.53,0,*60
1491372487.56,59358,13.63,73620.3,-0.13,-22.67,-22.31,0,*63
1491372488.78,59359,13.63,73622.0,-0.15,-22.73,-22.37,0,*67
1491372490.01,59360,13.63,73622.0,-0.13,-22.97,-22.67,0,*64
1491372491.25,59361,13.63,73616.0,-0.15,-22.53,-22.31,0,*68
1491372492.5,59362,13.63,73620.8,-0.13,-22.73,-22.53,0,*6B
1491372493.73,59363,13.63,73620.5,-0.13,-22.87,-22.53,0,*61